This is the latest recevied weather packets stored in our database for station/object KD2ZLA. If no packets are shown the sender has not sent any weather packets the latest 10 day(s).
| Time | Temp. | Humidity | Pressure | Rain* | Wind** | Luminosity | Snow |
|---|---|---|---|---|---|---|---|
| 1777893822 | 10° C | 70% | 1005.4 hPa | 0 mm | - | 16 W/m² | - |
| 1777893519 | 10° C | 70% | 1005.2 hPa | 0 mm | - | 21 W/m² | - |
| 1777893215 | 10° C | 68% | 1005.1 hPa | 0 mm | - | 12 W/m² | - |
| 1777892912 | 10.56° C | 68% | 1005.2 hPa | 0 mm | - | 14 W/m² | - |
| 1777892608 | 10.56° C | 66% | 1005.2 hPa | 0 mm | - | 14 W/m² | - |
| 1777892304 | 10.56° C | 66% | 1005.1 hPa | 0 mm | - | 23 W/m² | - |
| 1777892000 | 10.56° C | 68% | 1004.9 hPa | 0 mm | - | 11 W/m² | - |
| 1777891698 | 10.56° C | 67% | 1004.7 hPa | 0 mm | - | 9 W/m² | - |
| 1777891394 | 10.56° C | 67% | 1004.9 hPa | 0 mm | - | 6 W/m² | - |
| 1777891089 | 10° C | 67% | 1004.6 hPa | 0 mm | - | 15 W/m² | - |
| 1777890784 | 10° C | 68% | 1004.8 hPa | 0 mm | - | 11 W/m² | - |
| 1777890481 | 10° C | 69% | 1004.8 hPa | 0 mm | - | 10 W/m² | - |
| 1777890176 | 10° C | 69% | 1004.8 hPa | 0 mm | - | 11 W/m² | - |
| 1777889873 | 10° C | 69% | 1004.7 hPa | 0 mm | - | 8 W/m² | - |
| 1777889571 | 10° C | 70% | 1004.6 hPa | 0 mm | - | 8 W/m² | - |
| 1777889269 | 10° C | 70% | 1004.7 hPa | 0 mm | - | 7 W/m² | - |
| 1777888966 | 10° C | 71% | 1004.9 hPa | 0 mm | - | 4 W/m² | - |
| 1777888663 | 10° C | 71% | 1004.8 hPa | 0 mm | - | 3 W/m² | - |
| 1777888358 | 10° C | 71% | 1004.8 hPa | 0 mm | - | 2 W/m² | - |
| 1777888055 | 10° C | 72% | 1004.7 hPa | 0 mm | - | 1 W/m² | - |
| 1777887752 | 10° C | 72% | 1004.6 hPa | 0 mm | - | 1 W/m² | - |
| 1777887449 | 9.44° C | 73% | 1004.7 hPa | 0 mm | - | 1 W/m² | - |
| 1777887144 | 9.44° C | 73% | 1004.9 hPa | 0 mm | - | 0 W/m² | - |
| 1777886841 | 9.44° C | 74% | 1004.6 hPa | 0 mm | - | 0 W/m² | - |
| 1777886537 | 9.44° C | 74% | 1004.6 hPa | 0 mm | - | 0 W/m² | - |
* Rain latest hour (hover to see other rain measurements)
** Current wind speed in m/s (hover to see current wind gust speed)